TimeMDT,TemperatureF,Dew PointF,Humidity,Sea Level PressureIn,VisibilityMPH,Wind Direction,Wind SpeedMPH,Gust SpeedMPH,PrecipitationIn,Events,Conditions,WindDirDegrees,DateUTC
12:14 AM,46.2,15.3,29,29.86,10.0,Calm,Calm,-,N/A,,Clear,0,2012-10-09 06:14:00
12:34 AM,46.4,13.6,27,29.86,10.0,West,6.9,-,N/A,,Clear,280,2012-10-09 06:34:00
12:54 AM,53.2,11.5,19,29.86,10.0,WNW,11.5,-,N/A,,Clear,290,2012-10-09 06:54:00
1:14 AM,58.3,10.0,15,29.86,10.0,South,5.8,-,N/A,,Clear,190,2012-10-09 07:14:00
2:14 AM,61.5,9.3,13,29.88,10.0,NNW,6.9,-,N/A,,Clear,330,2012-10-09 08:14:00
2:34 AM,57.2,10.4,16,29.90,10.0,North,10.4,16.1,N/A,,Clear,360,2012-10-09 08:34:00
2:54 AM,47.7,18.0,31,29.92,10.0,NNE,8.1,-,N/A,,Clear,20,2012-10-09 08:54:00
3:14 AM,44.6,23.2,43,29.92,10.0,ENE,6.9,-,N/A,,Clear,60,2012-10-09 09:14:00
3:34 AM,43.0,26.4,52,29.93,10.0,NE,3.5,-,N/A,,Clear,50,2012-10-09 09:34:00
3:54 AM,40.6,27.7,60,29.94,10.0,ENE,4.6,-,N/A,,Clear,70,2012-10-09 09:54:00
4:14 AM,37.4,26.4,65,29.97,10.0,West,3.5,-,N/A,,Clear,260,2012-10-09 10:14:00
4:34 AM,34.9,25.5,69,29.98,10.0,West,3.5,-,N/A,,Clear,280,2012-10-09 10:34:00
4:54 AM,34.7,26.1,71,29.99,10.0,Calm,Calm,-,N/A,,Clear,0,2012-10-09 10:54:00
5:14 AM,34.3,27.1,75,29.99,10.0,South,3.5,-,N/A,,Clear,190,2012-10-09 11:14:00
5:34 AM,33.3,27.0,78,30.00,10.0,Calm,Calm,-,N/A,,Clear,0,2012-10-09 11:34:00
5:54 AM,33.1,26.6,77,30.02,10.0,Calm,Calm,-,N/A,,Clear,0,2012-10-09 11:54:00
6:14 AM,32.0,26.8,81,30.02,10.0,Calm,Calm,-,N/A,,Clear,0,2012-10-09 12:14:00
6:34 AM,31.8,27.0,82,30.03,10.0,Calm,Calm,-,N/A,,Clear,0,2012-10-09 12:34:00
6:54 AM,31.6,26.4,81,30.03,10.0,Calm,Calm,-,N/A,,Clear,0,2012-10-09 12:54:00
7:14 AM,30.7,26.1,83,30.04,5.0,Calm,Calm,-,N/A,,Haze,0,2012-10-09 13:14:00
7:34 AM,30.7,26.1,83,30.05,10.0,Calm,Calm,-,N/A,,Clear,0,2012-10-09 13:34:00
7:54 AM,32.2,28.2,85,30.06,4.0,Calm,Calm,-,N/A,,Clear,0,2012-10-09 13:54:00
8:14 AM,36.5,30.9,80,30.07,10.0,Calm,Calm,-,N/A,,Clear,0,2012-10-09 14:14:00
8:34 AM,43.0,35.1,74,30.08,10.0,NE,5.8,-,N/A,,Clear,40,2012-10-09 14:34:00
8:50 AM,43.3,34.9,72,30.09,10.0,NE,8.1,-,N/A,,Clear,50,2012-10-09 14:50:00
9:03 AM,43.3,35.1,73,30.09,10.0,ENE,8.1,-,N/A,,Scattered Clouds,70,2012-10-09 15:03:00
9:24 AM,43.7,34.9,71,30.09,10.0,ENE,8.1,-,N/A,,Mostly Cloudy,70,2012-10-09 15:24:00
9:42 AM,43.9,34.7,70,30.10,10.0,NE,3.5,-,N/A,,Mostly Cloudy,50,2012-10-09 15:42:00
10:02 AM,43.9,34.3,69,30.10,10.0,NE,5.8,-,N/A,,Overcast,50,2012-10-09 16:02:00
10:25 AM,44.6,33.8,66,30.10,10.0,ENE,5.8,-,N/A,,Overcast,70,2012-10-09 16:25:00
10:44 AM,44.8,34.9,68,30.11,10.0,ENE,3.5,-,N/A,,Overcast,70,2012-10-09 16:44:00
11:04 AM,45.0,34.3,66,30.10,10.0,Calm,Calm,-,N/A,,Overcast,0,2012-10-09 17:04:00
11:24 AM,44.8,33.8,65,30.11,10.0,ENE,5.8,-,N/A,,Overcast,60,2012-10-09 17:24:00
11:43 AM,45.0,34.0,65,30.11,10.0,East,4.6,-,N/A,,Overcast,90,2012-10-09 17:43:00
12:03 PM,46.0,34.7,65,30.10,10.0,NNE,4.6,-,N/A,,Overcast,30,2012-10-09 18:03:00
12:21 PM,47.1,34.9,62,30.09,10.0,Calm,Calm,-,N/A,,Overcast,0,2012-10-09 18:21:00
12:41 PM,48.2,34.0,58,30.09,10.0,East,5.8,-,N/A,,Overcast,100,2012-10-09 18:41:00
1:00 PM,46.8,33.8,61,30.09,10.0,ENE,6.9,-,N/A,,Overcast,60,2012-10-09 19:00:00
1:19 PM,46.4,34.9,64,30.09,10.0,NE,8.1,-,N/A,,Overcast,40,2012-10-09 19:19:00
1:40 PM,46.4,35.4,66,30.09,10.0,ENE,8.1,-,N/A,,Overcast,70,2012-10-09 19:40:00
2:00 PM,46.6,35.6,66,30.09,10.0,NE,8.1,-,N/A,,Overcast,50,2012-10-09 20:00:00
2:20 PM,46.8,35.4,65,30.11,10.0,ENE,3.5,-,N/A,,Overcast,70,2012-10-09 20:20:00
2:42 PM,47.5,35.1,62,30.11,10.0,East,4.6,-,N/A,,Overcast,90,2012-10-09 20:42:00
3:01 PM,47.5,34.7,61,30.11,10.0,Calm,Calm,-,N/A,,Overcast,0,2012-10-09 21:01:00
3:22 PM,47.3,34.9,62,30.12,10.0,NNE,3.5,-,N/A,,Overcast,30,2012-10-09 21:22:00
3:39 PM,46.9,34.9,63,30.12,10.0,Calm,Calm,-,N/A,,Overcast,0,2012-10-09 21:39:00
4:02 PM,46.9,34.9,63,30.13,10.0,Calm,Calm,-,N/A,,Overcast,0,2012-10-09 22:02:00
4:23 PM,47.7,34.7,61,30.13,10.0,Calm,Calm,-,N/A,,Overcast,0,2012-10-09 22:23:00
4:43 PM,48.2,34.9,60,30.13,10.0,East,3.5,-,N/A,,Overcast,100,2012-10-09 22:43:00
5:03 PM,47.5,34.7,61,30.13,10.0,Calm,Calm,-,N/A,,Overcast,0,2012-10-09 23:03:00
5:23 PM,47.3,34.9,62,30.15,10.0,Calm,Calm,-,N/A,,Overcast,0,2012-10-09 23:23:00
5:43 PM,47.3,34.9,62,30.15,10.0,Calm,Calm,-,N/A,,Overcast,0,2012-10-09 23:43:00
6:03 PM,47.1,34.9,62,30.15,10.0,SE,3.5,-,N/A,,Overcast,130,2012-10-10 00:03:00
6:22 PM,46.9,35.1,63,30.16,10.0,Calm,Calm,-,N/A,,Overcast,0,2012-10-10 00:22:00
6:44 PM,46.8,35.1,64,30.16,10.0,Calm,Calm,-,N/A,,Overcast,0,2012-10-10 00:44:00
7:02 PM,46.6,34.9,64,30.17,10.0,Calm,Calm,-,N/A,,Overcast,0,2012-10-10 01:02:00
7:25 PM,46.8,35.6,65,30.18,10.0,Calm,Calm,-,N/A,,Overcast,0,2012-10-10 01:25:00
7:45 PM,46.8,36.0,66,30.19,10.0,Calm,Calm,-,N/A,,Overcast,0,2012-10-10 01:45:00
8:05 PM,46.6,35.8,66,30.19,10.0,SSE,3.5,-,N/A,,Overcast,150,2012-10-10 02:05:00
8:25 PM,46.4,35.8,67,30.20,10.0,Calm,Calm,-,N/A,,Overcast,0,2012-10-10 02:25:00
8:45 PM,45.7,35.6,68,30.20,10.0,Calm,Calm,-,N/A,,Overcast,0,2012-10-10 02:45:00
9:05 PM,44.2,35.4,71,30.21,10.0,Calm,Calm,-,N/A,,Overcast,0,2012-10-10 03:05:00
9:25 PM,44.2,35.4,71,30.21,10.0,Calm,Calm,-,N/A,,Overcast,0,2012-10-10 03:25:00
9:44 PM,44.8,35.8,71,30.21,10.0,Calm,Calm,-,N/A,,Overcast,0,2012-10-10 03:44:00
10:04 PM,43.3,36.0,75,30.21,10.0,Calm,Calm,-,N/A,,Overcast,0,2012-10-10 04:04:00
10:23 PM,42.3,34.9,75,30.20,10.0,Calm,Calm,-,N/A,,Mostly Cloudy,0,2012-10-10 04:23:00
10:42 PM,41.5,35.2,78,30.20,10.0,Calm,Calm,-,N/A,,Mostly Cloudy,0,2012-10-10 04:42:00
11:02 PM,41.2,35.1,79,30.20,10.0,Calm,Calm,-,N/A,,Mostly Cloudy,0,2012-10-10 05:02:00
11:22 PM,40.8,34.9,79,30.19,10.0,Calm,Calm,-,N/A,,Scattered Clouds,0,2012-10-10 05:22:00
11:43 PM,39.4,34.5,83,30.19,10.0,Calm,Calm,-,N/A,,Clear,0,2012-10-10 05:43:00